Location: Augsburg
(48.3836°N, 10.8929°E)
Time: 13:06:14
(UTC+01:00)

Amateur Radio Satellites - All Passes

Search period start: 21 November 2017 12:36
Search period end: 22 November 2017 12:36
Location: Augsburg, 48.3836°N, 10.8929°E

Satellite Date Start Highest point End Downlink Frequencies (MHz)
Time Altitude Azimuth
QB50P2 21 Nov 12:36:16 12:38:44 15° 270° (W) 12:41:11 145.880/145.840
BUGSAT 1 21 Nov 12:41:22 12:45:31 59° 259° (WSW) 12:49:39 437.445
BEESAT 3 21 Nov 12:41:34 12:43:53 15° 248° (WSW) 12:46:11 437.485
Gurwin Techsat 1B 21 Nov 12:51:28 12:56:44 68° 71° (ENE) 13:02:03 435.225
DX 1 21 Nov 13:03:32 13:06:24 17° 91° (E) 13:09:14 434.975-435.025
AO-85 21 Nov 13:03:38 13:08:14 70° 235° (SW) 13:13:12 145.980
SPROUT 21 Nov 13:15:01 13:19:14 62° 287° (WNW) 13:23:24 437.525
AO-7 21 Nov 13:30:47 13:38:27 44° 57° (ENE) 13:46:09 .
ESTCUBE 1 21 Nov 13:33:41 13:36:19 15° 302° (WNW) 13:38:58 437.505/2401.250
UKube-1 21 Nov 13:45:11 13:48:53 27° 95° (E) 13:52:34 .
O/OREOS (USA 219) 21 Nov 13:51:04 13:55:40 76° 113° (ESE) 14:00:17 437.305
VELOX 1 21 Nov 13:53:09 13:57:24 43° 291° (WNW) 14:01:36 145.980
M-CUBED/EXP-1 PRIME 21 Nov 13:54:49 13:58:24 68° 253° (WSW) 14:02:19 437.505
BEESAT 2 21 Nov 13:54:52 13:54:55 10° 252° (WSW) 13:54:57 435.950
50 SAT 21 Nov 14:04:09 14:07:24 84° 104° (ESE) 14:10:37 437.505
Oscar 19 21 Nov 14:08:12 14:12:05 22° 268° (W) 14:16:01 437.125/150
ITAMSAT 1 21 Nov 14:19:49 14:24:43 42° 66° (ENE) 14:29:38 435.822/435.867
Gurwin Techsat 1B 21 Nov 14:33:26 14:37:11 19° 270° (W) 14:40:59 435.225
DX 1 21 Nov 14:38:37 14:42:57 58° 289° (WNW) 14:47:15 434.975-435.025
BEESAT 21 Nov 14:39:28 14:42:30 17° 90° (E) 14:45:30 436.000
YUBILEINY 21 Nov 14:45:38 14:51:56 21° 54° (NE) 14:58:11 435.215
AO-85 21 Nov 14:46:40 14:47:58 11° 252° (WSW) 14:49:16 145.980
ITUPSAT 1 21 Nov 14:48:49 14:52:17 20° 91° (E) 14:55:44 437.325
NO-84 21 Nov 14:59:32 15:02:29 22° 131° (SE) 15:05:36 435.350 FM
DOVE 4 21 Nov 14:59:37 15:03:14 20° 58° (ENE) 15:06:56 437.250
MOZHAYETS 4 21 Nov 15:00:57 15:05:06 33° 96° (E) 15:09:14
CUBESAT XI-V 21 Nov 15:14:04 15:16:00 12° 87° (E) 15:17:56 437.345
UKube-1 21 Nov 15:21:00 15:24:58 35° 293° (WNW) 15:28:53 .
AO-7 21 Nov 15:23:02 15:31:05 54° 258° (WSW) 15:39:13 .
O/OREOS (USA 219) 21 Nov 15:32:24 15:35:38 18° 314° (NW) 15:38:53 437.305
HO-68 21 Nov 15:34:45 15:36:22 11° 37° (NE) 15:38:00 435.675
CUTE-I 21 Nov 15:54:19 15:57:22 15° 54° (NE) 16:00:23 437.470
ITAMSAT 1 21 Nov 15:59:41 16:04:18 31° 265° (W) 16:08:56 435.822/435.867
BEESAT 21 Nov 16:16:00 16:20:44 67° 289° (WNW) 16:25:27 436.000
KAITUO 1B 21 Nov 16:17:57 16:19:21 12° 60° (ENE) 16:20:47 145.475/437.950
ITUPSAT 1 21 Nov 16:25:47 16:30:28 56° 290° (WNW) 16:35:06 437.325
XW-2D 21 Nov 16:31:18 16:34:14 22° 65° (ENE) 16:37:10 145.860 - 145.880
DOVE 4 21 Nov 16:35:13 16:40:17 74° 258° (WSW) 16:45:35 437.250
NO-84 21 Nov 16:35:37 16:39:27 75° 331° (NNW) 16:43:34 435.350 FM
MOZHAYETS 4 21 Nov 16:38:11 16:42:13 31° 294° (WNW) 16:46:14
YUBILEINY 21 Nov 16:41:32 16:50:27 77° 79° (ENE) 16:59:18 435.215
XW-2B 21 Nov 16:45:42 16:48:59 29° 68° (ENE) 16:52:17 145.730 - 145.750
CUBESAT XI-V 21 Nov 16:49:18 16:54:01 87° 285° (WNW) 16:58:44 437.345
KKS-1 21 Nov 16:52:42 16:56:27 26° 94° (E) 17:00:10 437.445
NUDT-PHONESAT 21 Nov 17:00:20 17:03:32 30° 68° (ENE) 17:06:46 437.300
XW-2C 21 Nov 17:10:50 17:14:31 57° 73° (ENE) 17:18:12 145.795 - 145.815
LilacSat-2 21 Nov 17:12:54 17:16:37 65° 74° (ENE) 17:20:23 437.200
HO-68 21 Nov 17:15:38 17:22:11 40° 60° (ENE) 17:28:46 435.675
STARS 21 Nov 17:17:03 17:20:13 19° 92° (E) 17:23:22 437.465
CUTE 1.7 + AOD 2 21 Nov 17:17:53 17:20:57 20° 63° (ENE) 17:24:03 437.475
XW-2F 21 Nov 17:21:25 17:25:06 71° 75° (ENE) 17:28:50 145.980 - 146.000
AO-7 21 Nov 17:24:47 17:25:52 10° 280° (W) 17:26:57 .
CUTE-I 21 Nov 17:31:13 17:36:35 81° 73° (ENE) 17:42:00 437.470
UWE-3 21 Nov 17:37:02 17:38:58 13° 58° (ENE) 17:40:52 435.000/436.395/437.385
RS-15 21 Nov 17:37:50 17:47:55 32° 103° (ESE) 17:57:55 29.354- 29.394
SEEDS 21 Nov 17:47:44 17:51:07 25° 65° (ENE) 17:54:33 437.485
KAITUO 1B 21 Nov 17:49:08 17:52:48 70° 258° (WSW) 17:56:31 145.475/437.950
AAUSAT CUBESAT 2 21 Nov 17:55:24 17:57:42 15° 60° (ENE) 18:00:00 437.432
BEESAT 21 Nov 17:56:16 17:57:38 11° 307° (NW) 17:58:59 436.000
XW-2D 21 Nov 18:04:51 18:08:14 33° 263° (W) 18:11:40 145.860 - 145.880
NO-84 21 Nov 18:13:35 18:17:16 34° 352° (N) 18:21:08 435.350 FM
CUBEBUG 2 21 Nov 18:14:00 18:18:20 44° 70° (ENE) 18:22:34 437.445
AO-73 21 Nov 18:17:24 18:19:49 15° 60° (ENE) 18:22:13 145.935
DOVE 4 21 Nov 18:17:30 18:18:55 11° 277° (W) 18:20:21 437.250
XW-2B 21 Nov 18:20:07 18:23:10 24° 266° (W) 18:26:16 145.730 - 145.750
XW-2A 21 Nov 18:20:45 18:23:24 22° 67° (ENE) 18:26:02 145.665 - 145.685
CUBESAT XI-V 21 Nov 18:28:23 18:30:40 14° 304° (WNW) 18:32:59 437.345
KKS-1 21 Nov 18:28:57 18:33:07 39° 293° (WNW) 18:37:15 437.445
Oscar 11 21 Nov 18:33:31 18:36:03 15° 60° (ENE) 18:38:35 .
NUDT-PHONESAT 21 Nov 18:34:29 18:37:25 22° 266° (W) 18:40:21 437.300
YUBILEINY 21 Nov 18:39:21 18:46:22 28° 281° (W) 18:53:22 435.215
XW-2C 21 Nov 18:47:20 18:49:03 13° 271° (W) 18:50:47 145.795 - 145.815
LilacSat-2 21 Nov 18:50:03 18:51:20 11° 272° (W) 18:52:36 437.200
CUTE 1.7 + AOD 2 21 Nov 18:52:26 18:56:29 47° 261° (W) 19:00:35 437.475
STARS 21 Nov 18:52:34 18:56:51 51° 290° (WNW) 19:01:05 437.465
XW-2F 21 Nov 18:59:06 18:59:41 10° 272° (W) 19:00:18 145.980 - 146.000
ZACube-1 21 Nov 19:00:39 19:04:42 41° 70° (ENE) 19:08:40 437.345
HO-68 21 Nov 19:02:48 19:09:46 51° 260° (W) 19:16:48 435.675
UWE-3 21 Nov 19:10:21 19:14:49 88° 259° (W) 19:19:09 435.000/436.395/437.385
CUTE-I 21 Nov 19:13:59 19:17:17 16° 272° (W) 19:20:36 437.470
FO-29 21 Nov 19:20:54 19:26:09 19° 83° (E) 19:31:14 435.910
SEEDS 21 Nov 19:22:47 19:26:38 36° 263° (W) 19:30:33 437.485
STRAND 1 21 Nov 19:25:18 19:30:11 42° 98° (E) 19:35:00 437.568
AAUSAT CUBESAT 2 21 Nov 19:28:31 19:32:37 69° 258° (WSW) 19:36:47 437.432
RS-15 21 Nov 19:46:38 19:59:03 89° 308° (NW) 20:11:18 29.354- 29.394
AO-73 21 Nov 19:51:18 19:55:34 69° 258° (WSW) 19:59:47 145.935
NO-84 21 Nov 19:51:28 19:55:22 38° 13° (NNE) 19:59:22 435.350 FM
CUBEBUG 2 21 Nov 19:51:31 19:55:07 23° 267° (W) 19:58:40 437.445
XW-2A 21 Nov 19:53:12 19:56:01 25° 265° (W) 19:58:49 145.665 - 145.685
DELFI C3 21 Nov 19:58:03 20:01:10 22° 65° (ENE) 20:04:18 145.870
Oscar 11 21 Nov 20:07:24 20:11:41 69° 258° (WSW) 20:16:00 .
nSIGHT-1 21 Nov 20:25:01 20:26:48 14° 137° (SE) 20:28:36 .
ZACube-1 21 Nov 20:37:45 20:41:08 22° 267° (W) 20:44:28 437.345
UWE-3 21 Nov 20:51:12 20:51:53 10° 274° (W) 20:52:32 435.000/436.395/437.385
EO-88 21 Nov 20:57:35 21:01:02 45° 72° (ENE) 21:04:32 145.990 - 145.960
Max Valier Satellite 21 Nov 20:59:44 21:03:21 68° 75° (ENE) 21:07:00 145.860
FO-29 21 Nov 21:04:25 21:12:22 80° 104° (ESE) 21:19:54 435.910
STRAND 1 21 Nov 21:04:46 21:09:13 30° 297° (WNW) 21:13:38 437.568
ISS 21 Nov 21:08:43 21:11:31 26° 143° (SE) 21:14:19 437.550
LO-87 21 Nov 21:22:48 21:24:42 14° 62° (ENE) 21:26:37 145.935 - 145.965
ESTCUBE 1 21 Nov 21:23:59 21:26:35 15° 58° (ENE) 21:29:11 437.505/2401.250
NO-84 21 Nov 21:28:49 21:33:05 84° 211° (SSW) 21:37:21 435.350 FM
DELFI C3 21 Nov 21:32:01 21:35:42 37° 263° (W) 21:39:27 145.870
PRISM 21 Nov 21:36:59 21:38:24 11° 88° (E) 21:39:49 437.425
nSIGHT-1 21 Nov 21:59:23 22:02:34 71° 155° (SSE) 22:05:47 .
RS-15 21 Nov 22:01:37 22:13:14 44° 336° (NNW) 22:24:35 29.354- 29.394
SO-50 21 Nov 22:04:39 22:09:01 55° 123° (ESE) 22:13:27 436.795
UNISAT 6 21 Nov 22:17:19 22:21:38 83° 103° (ESE) 22:25:54 437.425
O/OREOS (USA 219) 21 Nov 22:18:25 22:22:41 37° 56° (NE) 22:26:52 437.305
TIGRISAT 21 Nov 22:21:35 22:25:54 84° 105° (ESE) 22:30:08 435.000
EO-88 21 Nov 22:32:47 22:34:55 15° 269° (W) 22:37:04 145.990 - 145.960
SPROUT 21 Nov 22:36:58 22:40:02 20° 62° (ENE) 22:43:07 437.525
Max Valier Satellite 21 Nov 22:37:03 22:37:38 10° 272° (W) 22:38:12 145.860
ISS 21 Nov 22:44:30 22:47:47 74° 341° (NNW) 22:51:04 437.550
FO-29 21 Nov 22:50:08 22:56:36 29° 305° (NW) 23:02:54 435.910
LO-87 21 Nov 22:54:09 22:57:42 54° 260° (W) 23:01:15 145.935 - 145.965
ESTCUBE 1 21 Nov 22:58:20 23:02:48 77° 256° (WSW) 23:07:20 437.505/2401.250
PCSat 21 Nov 23:04:21 23:06:34 13° 102° (ESE) 23:08:48 145.827
NO-84 21 Nov 23:07:00 23:09:57 18° 231° (SW) 23:12:54 435.350 FM
PRISM 21 Nov 23:10:01 23:14:12 79° 287° (WNW) 23:18:22 437.425
VELOX 1 21 Nov 23:17:34 23:21:31 32° 66° (ENE) 23:25:30 145.980
AIST 2D 21 Nov 23:21:22 23:24:49 48° 99° (E) 23:28:14 435.315
DUCHIFAT 1 21 Nov 23:29:17 23:32:02 17° 91° (E) 23:34:45 145.980
nSIGHT-1 21 Nov 23:35:50 23:38:57 46° 354° (N) 23:42:04 .
EO-79 21 Nov 23:36:33 23:40:04 25° 94° (E) 23:43:34 145.935-145.965
NANOSAT C BR1 21 Nov 23:39:35 23:43:00 24° 94° (E) 23:46:25 145.865
SO-50 21 Nov 23:45:51 23:49:45 28° 324° (NW) 23:53:43 436.795
POLYITAN 1 21 Nov 23:51:45 23:55:38 35° 97° (E) 23:59:29 437.675
UNISAT 6 21 Nov 23:55:43 23:57:44 13° 302° (WNW) 23:59:43 437.425
O/OREOS (USA 219) 21 Nov 23:58:01 00:02:00 30° 255° (WSW) 00:05:54 437.305
TIGRISAT 22 Nov 00:00:01 00:01:57 13° 303° (WNW) 00:03:53 435.000
DX 1 22 Nov 00:02:12 00:05:43 24° 63° (ENE) 00:09:15 434.975-435.025
SPROUT 22 Nov 00:11:24 00:15:35 51° 260° (W) 00:19:47 437.525
QB50P2 22 Nov 00:14:55 00:19:08 69° 102° (ESE) 00:23:18 145.880/145.840
RS-15 22 Nov 00:18:26 00:29:32 37° 10° (N) 00:40:11 29.354- 29.394
BUGSAT 1 22 Nov 00:20:29 00:22:47 15° 90° (E) 00:25:03 437.445
ISS 22 Nov 00:21:21 00:24:31 45° 1° (N) 00:27:41 437.550
50 SAT 22 Nov 00:34:18 00:37:24 44° 72° (ENE) 00:40:32 437.505
Oscar 19 22 Nov 00:36:24 00:39:19 15° 88° (E) 00:42:12 437.125/150
UKube-1 22 Nov 00:42:45 00:46:43 37° 67° (ENE) 00:50:44 .
PCSat 22 Nov 00:43:38 00:49:02 75° 121° (ESE) 00:54:28 145.827
PRISM 22 Nov 00:47:50 00:48:44 11° 304° (NW) 00:49:38 437.425
VELOX 1 22 Nov 00:54:00 00:57:57 31° 264° (W) 01:01:55 145.980
AIST 2D 22 Nov 00:55:38 00:57:37 14° 297° (WNW) 00:59:36 435.315
DUCHIFAT 1 22 Nov 01:03:56 01:08:00 52° 289° (WNW) 01:12:02 145.980
Gurwin Techsat 1B 22 Nov 01:04:41 01:08:32 20° 90° (E) 01:12:22 435.225
EO-79 22 Nov 01:12:04 01:15:54 35° 292° (WNW) 01:19:42 145.935-145.965
nSIGHT-1 22 Nov 01:12:18 01:15:29 58° 14° (NNE) 01:18:39 .
NANOSAT C BR1 22 Nov 01:14:58 01:18:49 36° 292° (WNW) 01:22:38 145.865
POLYITAN 1 22 Nov 01:27:49 01:31:16 25° 295° (WNW) 01:34:43 437.675
SO-50 22 Nov 01:30:01 01:31:42 12° 347° (NNW) 01:33:25 436.795
DX 1 22 Nov 01:37:33 01:41:41 42° 261° (W) 01:45:53 434.975-435.025
BEESAT 22 Nov 01:48:52 01:53:00 30° 64° (ENE) 01:57:08 436.000
QB50P2 22 Nov 01:52:00 01:54:24 15° 301° (WNW) 01:56:47 145.880/145.840
BUGSAT 1 22 Nov 01:54:32 01:58:31 57° 288° (WNW) 02:02:27 437.445
ISS 22 Nov 01:57:57 02:01:14 84° 21° (NNE) 02:04:30 437.550
ITUPSAT 1 22 Nov 01:58:40 02:03:00 35° 66° (ENE) 02:07:21 437.325
MOZHAYETS 4 22 Nov 02:06:04 02:10:27 49° 70° (ENE) 02:14:51
50 SAT 22 Nov 02:08:21 02:09:45 12° 269° (W) 02:11:09 437.505
Oscar 19 22 Nov 02:14:06 02:19:17 83° 286° (WNW) 02:24:28 437.125/150
UKube-1 22 Nov 02:19:13 02:22:50 25° 265° (W) 02:26:27 .
CUBESAT XI-V 22 Nov 02:20:20 02:23:36 20° 61° (ENE) 02:26:54 437.345
PCSat 22 Nov 02:28:27 02:33:00 26° 323° (NW) 02:37:33 145.827
ITAMSAT 1 22 Nov 02:32:15 02:32:35 10° 84° (E) 02:32:54 435.822/435.867
BEESAT 3 22 Nov 02:32:39 02:36:12 32° 118° (ESE) 02:39:48 437.485
RS-15 22 Nov 02:32:46 02:44:47 65° 42° (NE) 02:56:06 29.354- 29.394
Gurwin Techsat 1B 22 Nov 02:43:40 02:48:58 66° 289° (WNW) 02:54:13 435.225
nSIGHT-1 22 Nov 02:48:39 02:51:39 38° 213° (SSW) 02:54:38 .
M-CUBED/EXP-1 PRIME 22 Nov 03:02:48 03:07:12 49° 105° (ESE) 03:11:43 437.505
SO-50 22 Nov 03:12:27 03:14:12 12° 13° (NNE) 03:15:58 436.795
AO-7 22 Nov 03:19:59 03:27:52 43° 99° (E) 03:35:42 .
AO-85 22 Nov 03:24:03 03:25:52 13° 110° (ESE) 03:27:42 145.980
BEESAT 22 Nov 03:26:13 03:30:39 38° 262° (W) 03:35:08 436.000
ISS 22 Nov 03:34:50 03:37:24 22° 220° (SW) 03:39:59 437.550
ITUPSAT 1 22 Nov 03:36:35 03:40:51 32° 264° (W) 03:45:08 437.325
MOZHAYETS 4 22 Nov 03:44:25 03:47:53 21° 268° (W) 03:51:21
BEESAT 2 22 Nov 03:45:05 03:48:59 51° 122° (ESE) 03:52:56 435.950
KKS-1 22 Nov 03:53:52 03:58:00 38° 67° (ENE) 04:02:10 437.445
YUBILEINY 22 Nov 03:54:36 03:59:57 18° 73° (ENE) 04:05:19 435.215
Oscar 19 22 Nov 03:55:01 03:57:50 15° 306° (NW) 04:00:40 437.125/150
CUBESAT XI-V 22 Nov 03:56:02 04:00:33 59° 259° (W) 04:05:09 437.345
ITAMSAT 1 22 Nov 04:07:46 04:13:00 70° 103° (ESE) 04:18:11 435.822/435.867
BEESAT 3 22 Nov 04:10:01 04:13:43 35° 318° (NW) 04:17:26 437.485
PCSat 22 Nov 04:16:32 04:18:23 12° 348° (NNW) 04:20:12 145.827
STARS 22 Nov 04:16:43 04:20:30 28° 64° (ENE) 04:24:16 437.465
Gurwin Techsat 1B 22 Nov 04:25:43 04:27:57 13° 309° (NW) 04:30:08 435.225
DOVE 4 22 Nov 04:30:54 04:35:18 27° 92° (E) 04:39:29 437.250
M-CUBED/EXP-1 PRIME 22 Nov 04:37:40 04:41:19 25° 302° (WNW) 04:45:05 437.505
RS-15 22 Nov 04:45:51 04:56:58 49° 248° (WSW) 05:07:31 29.354- 29.394
SO-50 22 Nov 04:52:08 04:56:09 28° 36° (NE) 05:00:13 436.795
AO-85 22 Nov 05:01:40 05:05:35 76° 310° (NW) 05:09:44 145.980
STRAND 1 22 Nov 05:08:26 05:11:23 16° 55° (NE) 05:14:19 437.568
AO-7 22 Nov 05:12:48 05:20:49 54° 300° (WNW) 05:28:50 .
BEESAT 2 22 Nov 05:23:32 05:26:56 26° 322° (NW) 05:30:24 435.950
KKS-1 22 Nov 05:30:51 05:34:39 27° 265° (W) 05:38:29 437.445
XW-2D 22 Nov 05:33:36 05:36:24 19° 92° (E) 05:39:10 145.860 - 145.880
FO-29 22 Nov 05:38:59 05:42:46 15° 44° (NE) 05:46:42 435.910
CUTE-I 22 Nov 05:45:01 05:49:21 24° 92° (E) 05:53:38 437.470
YUBILEINY 22 Nov 05:46:29 05:55:13 77° 95° (E) 06:04:03 435.215
XW-2B 22 Nov 05:48:07 05:51:21 26° 95° (E) 05:54:36 145.730 - 145.750
ITAMSAT 1 22 Nov 05:48:11 05:51:57 21° 302° (WNW) 05:55:42 435.822/435.867
BEESAT 3 22 Nov 05:51:18 05:52:23 11° 340° (NNW) 05:53:28 437.485
STARS 22 Nov 05:52:37 05:56:42 36° 263° (W) 06:00:50 437.465
NUDT-PHONESAT 22 Nov 06:00:04 06:03:09 24° 95° (E) 06:06:14 437.300
PCSat 22 Nov 06:02:11 06:04:22 12° 15° (NNE) 06:06:33 145.827
DOVE 4 22 Nov 06:08:10 06:13:11 47° 291° (WNW) 06:17:58 437.250
XW-2C 22 Nov 06:13:26 06:17:10 50° 100° (E) 06:20:53 145.795 - 145.815
LilacSat-2 22 Nov 06:16:17 06:20:05 59° 100° (E) 06:23:54 437.200
XW-2F 22 Nov 06:23:25 06:27:12 61° 101° (E) 06:30:58 145.980 - 146.000
HO-68 22 Nov 06:26:30 06:32:31 28° 92° (E) 06:38:28 435.675
SO-50 22 Nov 06:32:21 06:36:55 58° 236° (WSW) 06:41:32 436.795
CUTE 1.7 + AOD 2 22 Nov 06:33:39 06:37:04 23° 93° (E) 06:40:27 437.475
AO-85 22 Nov 06:44:03 06:46:44 17° 333° (NNW) 06:49:32 145.980
STRAND 1 22 Nov 06:44:40 06:49:49 86° 72° (ENE) 06:55:00 437.568
KAITUO 1B 22 Nov 06:50:02 06:53:49 83° 285° (WNW) 06:57:36 145.475/437.950
UWE-3 22 Nov 06:57:35 06:59:39 13° 88° (E) 07:01:43 435.000/436.395/437.385
SEEDS 22 Nov 07:02:29 07:06:10 28° 94° (E) 07:09:49 437.485
AO-7 22 Nov 07:06:58 07:11:49 17° 323° (NW) 07:16:39 .
XW-2D 22 Nov 07:07:10 07:10:43 38° 290° (WNW) 07:14:16 145.860 - 145.880
AAUSAT CUBESAT 2 22 Nov 07:07:52 07:10:16 15° 89° (E) 07:12:39 437.432
XW-2A 22 Nov 07:11:18 07:13:10 14° 91° (E) 07:15:02 145.665 - 145.685
FO-29 22 Nov 07:19:27 07:26:05 55° 66° (ENE) 07:33:26 435.910
XW-2B 22 Nov 07:22:13 07:25:31 28° 292° (WNW) 07:28:49 145.730 - 145.750
CUTE-I 22 Nov 07:24:29 07:29:44 55° 291° (WNW) 07:34:56 437.470
NUDT-PHONESAT 22 Nov 07:33:46 07:36:59 28° 292° (WNW) 07:40:12 437.300
AO-73 22 Nov 07:36:13 07:38:52 16° 90° (E) 07:41:31 145.935
CUBEBUG 2 22 Nov 07:37:17 07:41:26 58° 101° (E) 07:45:30 437.445
PCSat 22 Nov 07:44:50 07:49:36 30° 40° (NE) 07:54:22 145.827
UNISAT 6 22 Nov 07:44:51 07:47:31 16° 59° (ENE) 07:50:09 437.425
YUBILEINY 22 Nov 07:45:38 07:53:00 29° 299° (WNW) 08:00:28 435.215
XW-2C 22 Nov 07:48:35 07:50:59 16° 297° (WNW) 07:53:23 145.795 - 145.815
TIGRISAT 22 Nov 07:48:58 07:51:38 16° 59° (ENE) 07:54:17 435.000
Oscar 11 22 Nov 07:51:39 07:54:31 17° 90° (E) 07:57:23 .
LilacSat-2 22 Nov 07:51:47 07:53:56 15° 298° (WNW) 07:56:05 437.200
XW-2F 22 Nov 07:58:53 08:00:52 14° 299° (WNW) 08:02:50 145.980 - 146.000
CUTE 1.7 + AOD 2 22 Nov 08:09:02 08:13:03 40° 290° (WNW) 08:17:03 437.475
HO-68 22 Nov 08:13:40 08:20:48 69° 292° (WNW) 08:27:55 435.675
ZACube-1 22 Nov 08:20:49 08:24:53 52° 100° (E) 08:28:57 437.345
STRAND 1 22 Nov 08:26:57 08:29:41 14° 273° (W) 08:32:26 437.568
PRISM 22 Nov 08:29:15 08:31:37 15° 59° (ENE) 08:33:59 437.425
UWE-3 22 Nov 08:32:26 08:36:34 65° 287° (WNW) 08:40:40 435.000/436.395/437.385
SEEDS 22 Nov 08:38:03 08:41:51 33° 292° (WNW) 08:45:39 437.485
AAUSAT CUBESAT 2 22 Nov 08:41:58 08:46:06 61° 287° (WNW) 08:50:14 437.432
XW-2A 22 Nov 08:42:53 08:46:04 40° 289° (WNW) 08:49:15 145.665 - 145.685
DELFI C3 22 Nov 09:05:11 09:08:15 21° 92° (E) 09:11:18 145.870
FO-29 22 Nov 09:05:14 09:11:24 36° 268° (W) 09:18:14 435.910
CUTE-I 22 Nov 09:07:24 09:08:39 11° 311° (NW) 09:09:54 437.470
BEESAT 3 22 Nov 09:08:44 09:11:04 15° 28° (NNE) 09:13:24 437.485
AO-73 22 Nov 09:11:24 09:15:26 53° 288° (WNW) 09:19:29 145.935
CUBEBUG 2 22 Nov 09:14:57 09:17:37 17° 299° (WNW) 09:20:15 437.445
UNISAT 6 22 Nov 09:19:09 09:23:43 74° 258° (WSW) 09:28:11 437.425
TIGRISAT 22 Nov 09:23:16 09:27:48 74° 257° (WSW) 09:32:17 435.000
Oscar 11 22 Nov 09:26:45 09:31:00 55° 288° (WNW) 09:35:14 .
PCSat 22 Nov 09:28:01 09:33:24 62° 241° (WSW) 09:38:43 145.827
QB50P2 22 Nov 09:38:26 09:39:41 11° 56° (ENE) 09:40:57 145.880/145.840
EO-88 22 Nov 09:55:45 09:59:08 34° 97° (E) 10:02:30 145.990 - 145.960
ZACube-1 22 Nov 09:57:59 10:00:49 18° 298° (WNW) 10:03:40 437.345
AIST 2D 22 Nov 09:58:56 10:02:00 30° 69° (ENE) 10:05:05 435.315
Max Valier Satellite 22 Nov 09:59:22 10:02:59 55° 101° (E) 10:06:35 145.860
PRISM 22 Nov 10:02:16 10:06:22 68° 257° (WSW) 10:10:32 437.425
HO-68 22 Nov 10:02:47 10:07:19 18° 314° (NW) 10:11:51 435.675
AO-85 22 Nov 10:08:57 10:11:20 14° 23° (NNE) 10:13:48 145.980
BEESAT 2 22 Nov 10:21:59 10:25:01 20° 33° (NNE) 10:28:02 435.950
DUCHIFAT 1 22 Nov 10:24:17 10:27:28 21° 63° (ENE) 10:30:40 145.980
EO-79 22 Nov 10:32:08 10:35:52 31° 67° (ENE) 10:39:37 145.935-145.965
NANOSAT C BR1 22 Nov 10:34:49 10:38:29 30° 66° (ENE) 10:42:10 145.865
DELFI C3 22 Nov 10:39:24 10:43:09 39° 290° (WNW) 10:46:52 145.870
BEESAT 3 22 Nov 10:45:25 10:49:22 65° 49° (NE) 10:53:15 437.485
POLYITAN 1 22 Nov 10:47:23 10:51:24 43° 70° (ENE) 10:55:25 437.675
ESTCUBE 1 22 Nov 10:47:48 10:50:52 18° 90° (E) 10:53:56 437.505/2401.250
QB50P2 22 Nov 11:10:31 11:14:46 82° 73° (ENE) 11:19:02 145.880/145.840
BUGSAT 1 22 Nov 11:13:20 11:16:15 19° 62° (ENE) 11:19:10 437.445
EO-88 22 Nov 11:29:50 11:32:35 20° 295° (WNW) 11:35:19 145.990 - 145.960
AIST 2D 22 Nov 11:32:38 11:35:14 20° 267° (W) 11:37:51 435.315
Max Valier Satellite 22 Nov 11:34:24 11:36:24 14° 298° (WNW) 11:38:22 145.860
AO-85 22 Nov 11:48:26 11:52:48 44° 44° (NE) 11:57:30 145.980
LO-87 22 Nov 11:50:20 11:53:54 75° 285° (WNW) 11:57:25 145.935 - 145.965
SPROUT 22 Nov 11:53:41 11:56:51 20° 92° (E) 11:59:59 437.525
Oscar 19 22 Nov 11:56:14 12:00:45 32° 64° (ENE) 12:05:16 437.125/150
DUCHIFAT 1 22 Nov 11:58:49 12:02:52 44° 261° (W) 12:06:55 145.980
FALCONSAT 3 22 Nov 11:59:01 12:00:04 11° 184° (S) 12:01:07 435.103
BEESAT 2 22 Nov 11:59:10 12:03:14 79° 233° (SW) 12:07:13 435.950
EO-79 22 Nov 12:07:54 12:11:36 29° 264° (W) 12:15:21 145.935-145.965
NANOSAT C BR1 22 Nov 12:10:24 12:14:09 30° 264° (W) 12:17:54 145.865
M-CUBED/EXP-1 PRIME 22 Nov 12:20:01 12:21:52 13° 51° (NE) 12:23:47 437.505
ESTCUBE 1 22 Nov 12:23:35 12:28:02 58° 289° (WNW) 12:32:30 437.505/2401.250
BEESAT 3 22 Nov 12:24:03 12:26:26 15° 248° (WSW) 12:28:46 437.485
POLYITAN 1 22 Nov 12:24:09 12:27:22 21° 267° (W) 12:30:36 437.675
